Probability
0 0 0 0 0 0 0 0 0 0 0 0 0 0 0 0 0 0 0 0 0 0 0 0 0 0 0 0 0 0 0 0 0 0 0 0 0 0 0 0 0 0 0
0 0 0 0 0 0 0 0 0 0 0 0 0 0 0 0 0 0 0 0 0 0 0 0 0 0 0 0 0 0 0 0 0 0 0 0 0 0 0 0 0 0 0
0 0 0 0 0 0 0 0 0 0 0 0 0 0 0 0 0 0 0 0 0 0 0 0 0 0 0 0 0 0 0 0 0 0 0 0 0 0 0 0 0 0 0
0 0 0 0 0 0 0 0 0 0 0 0 0 0 0 0 0 0 0 0 0 0 0 0 0 0 0 0 0 0 0 0 0 0 0 0 0 0 0 0 0 0 0
0 0 0 0 0 0 0 0 0 0 0 0 0 0 0 0 0 0 0 0 0 0 0 0 0 0 0 0 0 0 0 0 0 0 0 0 0 0 0 0 0 0 0
0 0 0 0 0 0 0 0 0 0 0 0 0 0 0 0 0 0 0 0 0 0 0 0 0 0 0 0 0 0 0 0 0 0 0 0 0 0 0 0 0 0 0
0 0 0 0 0 0 0 0 0 0 0 0 0 0 0 0 0 0 0 0 0 0 0 0 0 0 0 0 0 0 0 0 0 0 0 0 0 0 0 0 0 0 0
0 0 0 0 0 0 0 0 0 0 0 0 0 0 0 0 0 0 0 0 0 0 0 0 0 0 0 0 0 0 0 0 0 0 0 0 0 0 0 0 0 0 0
0 0 0 0 0 0 0 0 0 0 0 0 0 0 0 0 0 0 0 0 0 0 0 0 0 0 0 0 0 0 0 0 0 0 0 0 0 0 0 0 0 0 0
0 0 0 0 0 0 0 0 0 0 0 0 0 0 0 0 0 0 0 0 0 0 0 0 0 0 0 0 0 0 0 0 0 0 0 0 0 0 0 0 0 0 0
0 0 0 0 0 0 0 0 0 0 0 0 0 0 0 0 0 0 0 0 0 0 0 0 0 0 0 0 0 0 0 0 0 0 0 0 0 0 0 0 0 0 0
0 0 0 0 0 0 0 0 0 0 0 0 0 0 0 0 0 0 0 0 0 0 0 0 0 0 0 0 0 0 0 0 0 0 0 0 0 0 0 0 0 0 0
0 0 0 0 0 0 0 0 0 0 0 0 0 0 0 0 0 0 0 0 0 0 0 0 0 0 0 0 0 0 0 0 0 0 0 0 0 0 0 0 0 0 0
0 0 0 0 0 0 0 0 0 0 0 0 0 0 0 0 0 0 0 0 0 0 0 0 0 0 0 0 0 0 0 0 0 0 0 0 0 0 0 0 0 0 0
0 0 0 0 0 0 0 0 0 0 0 0 0 0 0 0 0 0 0 0 0 0 0 0 0 0 0 0 0 0 0 0 0 0 0 0 0 0 0 0 0 0 0
0 0 0 0 0 0 0 0 0 0 0 0 0 0 0 0 0 0 0 0 0 0 0 0 0 0 0 0 0 0 0 0 0 0 0 0 0 0 0 0 0 0 0
0 0 0 0 0 0 0 0 0 0 0 0 0 0 0 0 0 0 0 0 0 0 0 0 0 0 0 0 0 0 0 0 0 0 0 0 0 0 0 0 0 0 0
0 0 0 0 0 0 0 0 0 0 0 0 0 0 0 0 0 0 0 0 0 0 0 0 0 0 0 0 0 0 0 0 0 0 0 0 0 0 0 0 0 0 0
0 0 0 0 0 0 0 0 0 0 0 0 0 0 0 0 0 0 0 0 0 0 0 0 0 0 0 0 0 0 0 0 0 0 0 0 0 0 0 0 0 0 0
0 0 0 0 0 0 0 0 0 0 0 0 0 0 0 0 0 0 0 0 0 0 0 0 0 0 0 0 0 0 0 0 0 0 0 0 0 0 0 0 0 0 0
0 0 0 0 0 0 0 0 0 0 0 0 0 0 0 0 0 0 0 0 0 0 0 0 0 0 0 0 0 0 0 0 0 0 0 0 0 0 0 0 0 0 0
0 0 0 0 0 0 0 0 0 0 0 0 0 0 0 0 0 0 0 0 0 0 0 0 0 0 0 0 0 0 0 0 0 0 0 0 0 0 0 0 0 0 0
0 0 0 0 0 0 0 0 0 0 0 0 0 0 0 0 0 0 0 0 0 0 0 0 0 0 0 0 0 0 0 0 0 0 0 0 0 0 0 0 0 0 0
0 0 0 0 0 0 0 0 0 0 0 0 0 0 0 0 0 0 0 0 0 0 0 0 0 0 0 0 0 0 0 0 0 0 0 0 0 0 0 0 0 0 0
0 0 0 0 0 0 0 0 0 0 0 0 0 0 0 0 0 0 0 0 0 0 0 0 0 0 0 0 0 0 0 0 0 0 0 0 0 0 0 0 0 0 0
0 0 0 0 0 0 0 0 0 0 0 0 0 0 0 0 0 0 0 0 0 0 0 0 0 0 0 0 0 0 0 0 0 0 0 0 0 0 0 0 0 0 0
Wind_Speed
12 13 13 14 14 14 13 14 13 12 12 13 13 14 14 15 14 14 15 13 15 14 12 13 14 12 10 9 9 9 9 8 10 4 2 4 7 9 7 6 6 6 6
11 11 13 12 12 13 14 14 13 13 12 13 13 13 14 14 14 15 15 15 15 15 14 14 14 11 13 10 9 10 9 9 8 7 3 4 5 7 7 7 6 5 4
8 10 10 11 12 13 14 13 12 12 12 11 12 13 14 13 14 14 14 14 15 15 14 14 14 13 13 10 10 10 8 7 7 6 4 3 3 4 5 4 5 4 4
7 9 10 11 12 12 11 10 11 11 11 11 12 12 12 12 13 12 13 13 14 13 13 13 13 13 13 12 10 10 8 7 6 5 4 3 3 4 5 5 5 5 5
7 8 10 9 8 8 8 8 8 9 10 10 10 10 10 10 10 12 12 12 12 12 12 12 12 12 13 12 9 9 8 7 6 5 5 4 5 6 7 6 6 5 4
7 8 7 6 6 7 7 7 7 7 8 8 9 10 10 8 11 14 12 10 11 11 11 9 9 10 11 14 14 13 12 10 9 8 7 7 8 7 6 7 6 5 5
7 6 6 6 6 7 6 6 7 8 7 8 8 8 9 10 12 13 14 10 9 9 9 8 6 6 8 8 9 11 11 12 12 9 9 9 9 10 10 8 8 7 5
6 6 6 6 6 6 6 7 7 6 6 6 7 7 7 7 9 11 11 9 8 7 7 7 7 6 7 7 6 6 5 6 7 7 7 7 6 8 10 9 7 5 3
6 6 6 6 6 6 7 7 6 5 5 5 4 5 6 6 8 9 9 5 5 6 5 5 6 6 9 11 8 6 5 3 3 6 6 6 9 12 12 8 7 5 3
7 7 6 6 7 8 8 6 5 5 5 4 4 4 5 5 6 8 9 4 4 4 3 4 5 6 9 12 8 7 7 5 5 5 5 6 6 10 14 9 9 7 4
4 5 5 6 7 6 5 4 5 5 5 4 4 4 4 4 5 8 9 5 5 4 4 4 4 9 10 11 9 6 8 7 6 6 5 4 4 4 5 5 4 5 5
3 4 4 5 5 4 5 5 5 5 5 5 4 3 3 3 4 6 9 8 6 5 4 4 4 9 9 9 7 7 10 8 5 5 5 5 5 5 4 4 4 2 2
2 3 3 3 4 4 5 6 5 5 5 5 4 4 3 3 4 6 7 8 8 5 4 6 7 9 8 6 7 10 8 6 5 5 6 5 4 4 5 4 4 5 5
3 3 3 3 4 4 4 5 5 6 6 5 5 5 4 3 4 4 4 4 5 4 4 5 8 9 7 6 6 6 4 4 5 5 4 4 4 4 4 4 3 4 3
2 3 3 3 4 4 4 4 5 5 5 6 5 5 5 5 6 8 6 5 5 5 5 3 3 4 4 4 4 4 4 4 4 4 5 5 5 4 4 3 3 4 4
2 3 3 3 3 3 3 2 3 3 4 5 5 4 3 4 6 9 10 9 9 11 6 4 5 5 5 5 5 4 4 4 4 4 5 5 5 5 5 4 3 4 4
3 3 2 2 3 3 3 4 3 2 3 3 4 5 5 5 6 8 9 9 10 11 5 4 5 5 5 5 5 5 5 4 4 5 5 5 5 5 5 5 5 4 4
2 2 2 2 2 3 3 3 3 3 2 1 1 3 5 6 6 7 9 8 5 5 3 3 4 4 4 5 5 4 4 5 5 5 5 5 6 6 6 6 6 6 5
2 1 1 1 1 2 2 2 2 3 2 2 1 1 2 4 6 6 7 4 4 4 3 3 3 3 3 4 4 4 5 5 5 5 5 6 6 6 6 6 6 7 6
2 1 0 0 1 1 2 2 2 3 3 2 2 2 2 2 3 3 3 2 3 3 3 3 3 3 3 4 4 4 4 4 5 5 5 5 5 6 6 7 6 6 6
2 1 1 1 1 1 1 2 2 2 2 2 2 2 4 3 3 3 3 2 2 2 2 3 3 3 3 3 4 5 5 4 5 5 4 4 5 5 5 5 5 6 5
2 1 1 0 0 1 1 1 1 2 2 2 1 2 3 2 2 2 2 2 2 2 2 3 3 3 3 3 4 4 4 4 4 5 5 4 4 5 4 4 5 5 5
2 1 1 1 1 1 1 1 1 1 1 1 2 2 1 2 2 2 2 2 2 2 2 2 2 2 2 2 2 3 4 5 5 5 5 5 5 5 5 5 6 5 6
2 1 1 1 1 1 1 1 1 1 1 1 1 1 1 2 2 2 1 1 1 1 1 2 2 2 3 2 1 2 2 3 4 4 6 6 6 5 5 5 6 6 6
2 2 1 1 1 1 1 1 1 1 1 1 1 1 1 1 2 1 1 1 1 1 1 1 1 2 2 2 2 2 3 3 4 4 5 5 6 6 6 6 5 5 5
2 2 2 1 1 1 1 1 1 1 1 1 1 1 1 1 1 1 1 1 1 1 1 1 1 1 1 2 2 3 3 4 5 5 5 4 5 5 5 5 6 6 6
Wind_Direction
211 212 213 214 214 215 218 220 219 218 212 212 211 212 214 216 216 218 222 219 223 225 222 223 226 222 223 221 219 218 219 220 242 237 174 170 178 187 185 185 186 189 195
211 210 214 215 212 213 218 220 218 218 215 215 213 214 215 216 215 217 221 221 223 225 223 223 226 222 224 222 220 221 221 216 223 234 190 174 187 189 178 177 182 185 190
208 209 213 213 213 216 219 219 217 217 217 214 213 216 217 217 216 217 220 222 224 226 224 224 224 221 226 223 221 222 219 214 213 215 202 168 162 164 163 169 175 181 195
207 209 213 215 215 218 218 216 214 214 215 214 215 217 217 216 216 216 218 222 224 225 223 223 221 219 222 221 220 220 213 209 203 202 194 164 157 154 160 172 187 192 198
206 211 217 216 214 214 215 214 212 211 214 214 215 218 218 217 216 214 216 221 224 226 224 224 223 221 221 217 214 211 205 208 200 199 198 177 177 171 188 181 189 177 192
208 217 218 209 205 208 211 208 206 210 211 208 214 216 218 218 215 212 212 218 222 225 226 223 220 216 218 217 216 209 202 203 204 201 204 203 202 191 174 175 167 165 201
213 218 211 204 206 208 203 198 205 208 205 210 214 213 219 220 213 212 212 216 220 223 222 217 215 211 207 212 215 214 215 215 207 202 206 207 195 186 174 178 185 187 192
217 217 209 200 207 204 196 203 207 201 203 210 213 213 219 222 212 211 209 213 220 223 220 212 210 208 201 193 194 201 208 212 210 212 214 209 195 177 178 178 172 145 92
222 218 212 200 200 197 201 209 205 194 200 204 201 206 214 224 211 206 194 200 213 220 215 209 203 203 199 188 184 191 193 197 186 184 185 175 165 163 157 140 146 154 169
226 219 210 196 196 200 204 202 191 187 197 190 199 202 207 217 205 196 186 186 203 210 205 203 203 200 192 185 185 184 192 192 162 145 142 147 153 162 165 169 168 169 159
223 213 208 199 199 201 194 187 180 179 179 186 198 204 206 209 201 194 188 187 196 199 202 200 199 195 193 190 186 189 190 166 155 150 144 140 137 148 161 163 168 170 168
211 210 212 202 192 186 183 182 176 174 182 192 194 207 215 208 198 198 194 193 185 191 202 193 187 188 189 185 182 176 161 149 145 147 154 163 166 167 161 151 135 109 96
224 223 214 199 189 181 181 183 178 180 190 196 196 209 212 200 198 195 193 192 190 188 187 176 172 175 172 172 171 161 150 151 156 165 177 178 163 148 134 123 105 96 78
225 228 208 194 193 185 184 183 185 190 194 196 199 207 206 196 196 188 182 182 180 173 158 156 159 160 152 144 150 153 153 161 169 175 163 144 133 140 150 148 148 147 131
237 223 205 195 190 190 191 191 193 202 196 193 199 193 193 206 204 187 175 180 178 169 146 139 149 153 159 158 154 151 150 154 157 151 150 149 154 157 158 152 146 154 168
246 227 209 195 186 184 185 189 176 180 179 189 183 176 192 187 169 179 185 183 175 165 155 169 179 180 181 180 178 173 172 175 170 161 160 162 166 170 164 161 163 175 187
251 239 213 194 189 189 187 188 191 137 131 154 169 171 169 164 166 173 178 175 173 170 178 181 183 185 185 183 182 181 182 175 166 166 169 170 168 170 171 177 181 185 194
280 257 219 200 195 193 189 187 187 182 185 199 170 167 163 162 161 164 166 159 170 178 182 182 185 184 183 184 183 180 172 166 169 173 175 175 174 177 181 185 189 193 193
287 272 246 197 178 183 176 173 174 173 176 174 147 148 161 162 158 162 162 169 176 183 183 180 180 179 181 177 173 172 171 174 175 176 180 180 180 181 188 190 192 194 194
302 309 222 170 169 173 174 176 177 177 176 178 184 178 154 156 168 173 177 172 173 176 177 180 179 176 176 174 171 169 169 172 176 181 184 184 185 188 191 191 193 195 202
310 331 61 139 172 174 175 181 182 179 181 182 181 166 164 174 180 177 174 170 169 166 166 169 171 175 175 171 172 176 178 180 182 182 183 185 185 190 192 193 196 198 198
325 345 26 59 110 129 135 141 155 169 174 172 160 152 159 155 159 166 162 151 141 141 155 164 168 170 175 177 177 179 182 185 185 183 184 185 186 187 186 191 194 195 196
348 17 45 50 65 83 90 98 126 156 168 161 146 131 133 143 146 145 139 133 132 135 142 148 152 155 158 166 172 176 183 190 190 185 185 186 186 188 189 193 194 197 203
357 22 59 67 72 82 90 96 105 113 113 111 114 126 130 125 117 110 105 102 108 113 118 125 138 155 162 164 170 177 182 182 177 183 184 184 186 187 189 192 194 198 201
11 19 32 49 77 95 101 99 95 95 100 108 112 104 94 100 106 105 103 103 107 105 95 96 114 144 168 177 187 199 202 192 184 178 178 181 185 188 189 191 192 193 197
20 27 26 26 41 60 82 101 110 111 112 100 92 91 90 89 92 100 105 104 102 96 88 86 111 140 167 184 203 210 205 202 195 188 181 180 183 189 188 191 190 193 193